Location: Christian Reformed Church
(43.0975°N, 93.8113°W)
Time: 19:13:55
(UTC+00:00)

Meteor 1-25 Rocket - Pass Details

Date: 17 March 2026
Orbit: 836 x 889 km, 81.2° (Epoch: 14 April)

Event Time Altitude Azimuth Distance (km) Brightness Sun altitude
Rises 11:38:51 0° 346° (NNW) 3,476 7.3 -9.0°
Reaches altitude 10° 11:41:18 10° 344° (NNW) 2,541 6.6 -8.6°
Maximum altitude 11:47:01 65° 264° (W) 970 4.3 -7.5°
Drops below altitude 10° 11:52:45 10° 184° (S) 2,545 6.6 -6.5°
Sets 11:55:12 0° 181° (S) 3,482 7.3 -6.0°
